Regional Weather Roundup
Issued by NWS Charleston, SC

Current Version | Previous Version | Graphics & Text | Print | Product List | Glossary On
Versions: 1 2 3 4 5 6 7 8 9 10 11 12 13 14 15 16 17 18 19 20 21 22 23 24 25 26 27 28 29 30 31 32 33 34 35 36 37 38 39 40 41 42 43 44 45 46 47 48 49 50
000
ASUS42 KCHS 231210
RWRCHS
REGIONAL WEATHER ROUNDUP
NATIONAL WEATHER SERVICE CHARLESTON SC
800 AM EDT THU OCT 23 2014

NOTE: "FAIR" INDICATES FEW OR NO CLOUDS BELOW 12,000 FEET WITH NO
SIGNIFICANT WEATHER AND/OR OBSTRUCTIONS TO VISIBILITY.

NOT ALL STATIONS ARE QUALITY CONTROLLED BY THE NATIONAL
WEATHER SERVICE. USE DATA WITH CAUTION...ESPECIALLY
DEWPOINT OBSERVATIONS.

SCZ027-030-031-034>040-042>050-231300-
...SOUTH CAROLINA...

CITY           SKY/WX    TMP DP  RH WIND       PRES   REMARKS
N CHARLESTON   CLEAR     46  42  86 NW3       30.08S
6HR MIN TEMP:  45; 6HR MAX TEMP:  54;

WATERFRONT PRK   N/A     52 N/A N/A NW5         N/A
FORT JOHNSON   NOT AVBL
JOHNS ISLAND   SUNNY     48  46  93 CALM      30.08S
PINOPOLIS      NOT AVBL
MONCKS CORNER  FAIR      54  48  82 N6        30.08S
SUMMERVILLE    FAIR      43  43 100 CALM      30.10R
BEAUFORT MCAS  CLEAR     49  44  83 N5        30.09S
6HR MIN TEMP:  47; 6HR MAX TEMP:  54;

BEAUFORT ARPT  FAIR      48  45  87 CALM      30.09S
HILTON HEAD IS CLEAR     54  46  76 N7        30.09S
GEORGETOWN     NOT AVBL
WALTERBORO     SUNNY     43 N/A N/A NW3       30.10S
ORANGEBURG     CLEAR     42  38  85 NW3       30.08F
6HR MIN TEMP:  42; 6HR MAX TEMP:  50;

BARNWELL       FAIR      39  37  93 CALM      30.11R
AIKEN          FAIR      39  39 100 CALM      30.13R
MANNING        FAIR      43 N/A N/A CALM      30.08S
KINGSTREE      NOT AVBL
COLUMBIA       CLEAR     41  37  86 SW3       30.09R
6HR MIN TEMP:  41; 6HR MAX TEMP:  51;

SUMTER         CLEAR     46  41  82 NW8       30.06S
6HR MIN TEMP:  45; 6HR MAX TEMP:  48;

FLORENCE       CLEAR     46  40  79 NW6       30.06S
6HR MIN TEMP:  46; 6HR MAX TEMP:  51;

MYRTLE BEACH   CLEAR     46  41  81 NW8       30.06
N MYRTLE BEACH CLEAR     47  42  83 NW3       30.04R
6HR MIN TEMP:  46; 6HR MAX TEMP:  51;


$$

GAZ063-065-086>088-099>101-113>116-118-119-134-136>141-150-231300-
...GEORGIA...

CITY           SKY/WX    TMP DP  RH WIND       PRES   REMARKS
SAVANNAH ARPT  CLEAR     47  42  83 N3        30.09F
6HR MIN TEMP:  46; 6HR MAX TEMP:  52;

HUNTER AAF     CLEAR     49  44  83 N3        30.07S
6HR MIN TEMP:  47; 6HR MAX TEMP:  54;

FORT STEWART   CLEAR     45  42  88 N2        30.08S
6HR MIN TEMP:  44; 6HR MAX TEMP:  47;

STATESBORO     NOT AVBL
SYLVANIA       SUNNY     45  44  97 CALM      30.11S
CLAXTON        FAIR      39  39 100 CALM      30.11R
THOMSON        CLEAR     39  39 100 CALM      30.15S
AUGUSTA-BUSH   CLEAR     36  35  96 CALM      30.10S
6HR MIN TEMP:  36; 6HR MAX TEMP:  49;

AUGUSTA-DANIEL CLEAR     47  40  76 N9        30.10S
SWAINSBORO     FAIR      41  41 100 MISG      30.12R
VIDALIA        CLEAR     43  43 100 CALM      30.10S
ALMA           CLEAR     46  42  86 VRB3      30.09R
6HR MIN TEMP:  42; 6HR MAX TEMP:  49;

WAYCROSS       CLEAR     48  46  93 CALM      30.09R
JESUP          FAIR      50  46  87 NE5       30.09R
BRUNSWICK      CLEAR     50  46  87 CALM      30.08S
SAINT SIMONS   CLEAR     51  50  96 N7        30.06S
6HR MIN TEMP:  51; 6HR MAX TEMP:  54;


$$

SCZ027-028-034-036>038-045-046-048>050-GAZ119-141-231300-
...LAKE AND SUPPLEMENTAL COASTAL OBSERVATIONS...

STATION/POSITION TIME  TEMP    WIND        PRES    WAVE   SWELL
                       AIR SEA DIR/SP/G            HT/PER HT/PER/DIR
                 (UTC) (F)     (DEG/KT/KT) (MB)    (FT/S) (FT/S/D)
UPR LAKE MARION  NOT AVBL
WINYAH BAY       NOT AVBL
LAKE MURRAY      1100   47     360/  3/  8 1018.3S
ACE BASIN NERRS  NOT AVBL
FORT PULASKI     1200   52     310/  5/  8 1018.7F
SAPELO ISLAND    NOT AVBL

$$

ANZ835-935-AMZ111-154-330-350-352-354-374-450-454-472-231300-
...C-MAN AND BUOY OBSERVATIONS...

STATION/POSITION TIME  TEMP    WIND        PRES    WAVE   SWELL
                       AIR SEA DIR/SP/G            HT/PER HT/PER/DIR
                 (UTC) (F)     (DEG/KT/KT) (MB)    (FT/S) (FT/S/D)
FOLLY BEACH CMAN 1100   54     340/  9/ 13 1018.6R
BUOY 41004       1200   63 78  340/ 12/ 16 1016.8R   4/ 6   2/ 6
BUOY 41008       1200   65 75   30/ 10/ 14 1017.7R   3/ 5   2/ 50/ 5
5E ST. MARYS GA  1200      76                N/A     3/ 5
FRYING PAN BUOY  1200   60 74  340/ 14/ 17 1016.5R   4/ 5   2/110/10
BUOY 41025       1200   58     300/ 23/ 29 1012.2R   6/ 6   2/ 70/10
CAPE LOOKOUT NC  1100   55     310/ 15/ 18 1014.3R
BUOY 41002       1116   71 78  310/ 16/ 21 1014.1R   7/ 8   5/340/ 8
BUOY 41010       1200   73 81   40/ 12/ 16 1014.8S   4/ 7   3/340/ 7
BUOY 41012       NOT AVBL
ST AUGUSTINE FL  1200   69      40/ 12/ 13 1017.1F
CAPERS NEARSHORE NOT AVBL
FRIPP NEARSHORE  NOT AVBL


$$



USA.gov is the U.S. government's official web portal to all federal, state and local government web resources and services.